TimeMST,TemperatureF,Dew PointF,Humidity,Sea Level PressureIn,VisibilityMPH,Wind Direction,Wind SpeedMPH,Gust SpeedMPH,PrecipitationIn,Events,Conditions,WindDirDegrees,DateUTC
12:15 AM,30.2,10.4,44,29.89,-9999.0,ESE,6.9,-,N/A,,Clear,120,2012-11-09 07:15:00
12:35 AM,33.8,10.4,38,29.88,-9999.0,ESE,8.1,-,N/A,,Scattered Clouds,120,2012-11-09 07:35:00
12:55 AM,33.8,10.4,38,29.88,-9999.0,Calm,Calm,-,N/A,,Clear,0,2012-11-09 07:55:00
1:15 AM,33.8,10.4,38,29.86,-9999.0,NE,8.1,-,N/A,,Clear,50,2012-11-09 08:15:00
1:35 AM,35.6,10.4,35,29.86,-9999.0,Calm,Calm,-,N/A,,Clear,0,2012-11-09 08:35:00
1:55 AM,33.8,12.2,41,29.86,-9999.0,ESE,4.6,-,N/A,,Clear,110,2012-11-09 08:55:00
2:15 AM,37.4,12.2,36,29.87,-9999.0,East,5.8,-,N/A,,Clear,90,2012-11-09 09:15:00
2:34 AM,35.6,12.2,38,29.87,-9999.0,ESE,6.9,-,N/A,,Scattered Clouds,110,2012-11-09 09:34:00
2:55 AM,41.0,15.8,36,29.87,-9999.0,South,4.6,-,N/A,,Scattered Clouds,170,2012-11-09 09:55:00
3:14 AM,42.8,15.8,34,29.87,-9999.0,SE,4.6,-,N/A,,Scattered Clouds,130,2012-11-09 10:14:00
3:34 AM,41.0,19.4,42,29.87,-9999.0,SSE,4.6,-,N/A,,Mostly Cloudy,150,2012-11-09 10:34:00
3:55 AM,41.0,21.2,45,29.87,-9999.0,SE,4.6,-,N/A,,Mostly Cloudy,130,2012-11-09 10:55:00
4:15 AM,41.0,21.2,45,29.87,-9999.0,SSE,4.6,-,N/A,,Mostly Cloudy,160,2012-11-09 11:15:00
4:35 AM,41.0,23.0,49,29.87,-9999.0,South,4.6,-,N/A,,Scattered Clouds,170,2012-11-09 11:35:00
4:55 AM,41.0,23.0,49,29.87,-9999.0,SE,6.9,-,N/A,,Mostly Cloudy,130,2012-11-09 11:55:00
5:15 AM,41.0,23.0,49,29.86,-9999.0,East,3.5,-,N/A,,Overcast,100,2012-11-09 12:15:00
5:35 AM,39.2,23.0,52,29.86,-9999.0,SE,4.6,-,N/A,,Mostly Cloudy,140,2012-11-09 12:35:00
5:55 AM,37.4,23.0,56,29.86,-9999.0,Calm,Calm,-,N/A,,Overcast,0,2012-11-09 12:55:00
6:35 AM,37.4,23.0,56,29.86,-9999.0,WSW,4.6,-,N/A,,Mostly Cloudy,250,2012-11-09 13:35:00
6:55 AM,35.6,23.0,60,29.87,-9999.0,East,4.6,-,N/A,,Overcast,80,2012-11-09 13:55:00
7:14 AM,35.6,21.2,56,29.87,-9999.0,East,6.9,-,N/A,,Overcast,80,2012-11-09 14:14:00
7:34 AM,35.6,19.4,52,29.87,-9999.0,East,4.6,-,N/A,,Overcast,90,2012-11-09 14:34:00
7:55 AM,37.4,19.4,48,29.87,-9999.0,East,6.9,-,N/A,,Mostly Cloudy,100,2012-11-09 14:55:00
8:15 AM,39.2,19.4,45,29.87,-9999.0,East,5.8,-,N/A,,Scattered Clouds,90,2012-11-09 15:15:00
8:35 AM,41.0,21.2,45,29.85,-9999.0,East,8.1,-,N/A,,Clear,100,2012-11-09 15:35:00
8:55 AM,41.0,19.4,42,29.84,-9999.0,ESE,11.5,-,N/A,,Clear,110,2012-11-09 15:55:00
9:15 AM,44.6,23.0,43,29.83,-9999.0,East,9.2,-,N/A,,Clear,90,2012-11-09 16:15:00
9:35 AM,48.2,24.8,40,29.83,-9999.0,ENE,5.8,-,N/A,,Scattered Clouds,60,2012-11-09 16:35:00
9:55 AM,50.0,23.0,35,29.82,-9999.0,SW,5.8,16.1,N/A,,Mostly Cloudy,220,2012-11-09 16:55:00
10:15 AM,51.8,23.0,33,29.81,-9999.0,SW,6.9,18.4,N/A,,Scattered Clouds,230,2012-11-09 17:15:00
10:34 AM,55.4,19.4,25,29.80,-9999.0,WSW,18.4,26.5,N/A,,Scattered Clouds,240,2012-11-09 17:34:00
10:55 AM,53.6,19.4,26,29.79,-9999.0,SW,13.8,33.4,N/A,,Clear,230,2012-11-09 17:55:00
11:15 AM,55.4,21.2,26,29.77,-9999.0,WSW,20.7,25.3,N/A,,Clear,250,2012-11-09 18:15:00
11:34 AM,55.4,19.4,25,29.76,-9999.0,WSW,17.3,28.8,N/A,,Clear,250,2012-11-09 18:34:00
11:55 AM,55.4,19.4,25,29.75,-9999.0,WSW,18.4,28.8,N/A,,Clear,240,2012-11-09 18:55:00
12:15 PM,55.4,19.4,25,29.74,-9999.0,WSW,15.0,27.6,N/A,,Clear,240,2012-11-09 19:15:00
12:35 PM,59.0,17.6,20,29.73,-9999.0,WSW,13.8,28.8,N/A,,Clear,240,2012-11-09 19:35:00
12:55 PM,59.0,17.6,20,29.71,-9999.0,West,17.3,27.6,N/A,,Clear,260,2012-11-09 19:55:00
1:15 PM,59.0,14.0,17,29.70,-9999.0,SW,15.0,28.8,N/A,,Clear,230,2012-11-09 20:15:00
1:35 PM,59.0,14.0,17,29.69,-9999.0,SW,21.9,35.7,N/A,,Clear,230,2012-11-09 20:35:00
1:55 PM,59.0,14.0,17,29.67,-9999.0,SW,18.4,32.2,N/A,,Clear,230,2012-11-09 20:55:00
2:15 PM,57.2,14.0,18,29.66,-9999.0,SW,21.9,34.5,N/A,,Clear,230,2012-11-09 21:15:00
2:35 PM,55.4,15.8,21,29.66,-9999.0,SW,21.9,35.7,N/A,,Clear,230,2012-11-09 21:35:00
2:55 PM,55.4,17.6,23,29.66,-9999.0,SW,20.7,32.2,N/A,,Clear,230,2012-11-09 21:55:00
3:15 PM,55.4,17.6,23,29.66,-9999.0,SW,20.7,33.4,N/A,,Clear,230,2012-11-09 22:15:00
3:35 PM,53.6,14.0,21,29.65,-9999.0,SW,24.2,32.2,N/A,,Clear,220,2012-11-09 22:35:00
3:55 PM,53.6,14.0,21,29.66,-9999.0,SW,23.0,27.6,N/A,,Clear,220,2012-11-09 22:55:00
4:15 PM,51.8,15.8,24,29.66,-9999.0,SW,21.9,29.9,N/A,,Clear,220,2012-11-09 23:15:00
4:35 PM,50.0,19.4,30,29.65,-9999.0,SW,24.2,31.1,N/A,,Clear,220,2012-11-09 23:35:00
4:55 PM,50.0,19.4,30,29.65,-9999.0,SW,24.2,28.8,N/A,,Clear,220,2012-11-09 23:55:00
5:15 PM,50.0,19.4,30,29.66,-9999.0,SW,19.6,29.9,N/A,,Clear,220,2012-11-10 00:15:00
5:35 PM,50.0,17.6,28,29.66,-9999.0,SW,18.4,28.8,N/A,,Clear,220,2012-11-10 00:35:00
5:55 PM,50.0,17.6,28,29.67,-9999.0,SW,18.4,21.9,N/A,,Clear,220,2012-11-10 00:55:00
6:15 PM,50.0,19.4,30,29.67,-9999.0,SW,17.3,-,N/A,,Clear,220,2012-11-10 01:15:00
6:35 PM,44.6,19.4,37,29.68,-9999.0,South,11.5,-,N/A,,Clear,190,2012-11-10 01:35:00
6:55 PM,44.6,19.4,37,29.68,-9999.0,SSW,8.1,-,N/A,,Scattered Clouds,210,2012-11-10 01:55:00
7:15 PM,50.0,19.4,30,29.68,-9999.0,SW,11.5,-,N/A,,Scattered Clouds,230,2012-11-10 02:15:00
7:35 PM,50.0,21.2,32,29.67,-9999.0,SW,11.5,20.7,N/A,,Scattered Clouds,220,2012-11-10 02:35:00
7:55 PM,48.2,23.0,37,29.66,-9999.0,SW,11.5,16.1,N/A,,Scattered Clouds,230,2012-11-10 02:55:00
8:15 PM,50.0,23.0,35,29.69,-9999.0,WSW,18.4,33.4,N/A,Rain,Light Rain,250,2012-11-10 03:15:00
8:35 PM,44.6,26.6,49,29.69,-9999.0,SSW,9.2,-,N/A,,Mostly Cloudy,210,2012-11-10 03:35:00
8:55 PM,44.6,24.8,46,29.67,-9999.0,South,8.1,-,N/A,,Clear,190,2012-11-10 03:55:00
9:15 PM,42.8,24.8,49,29.68,-9999.0,South,6.9,-,N/A,,Scattered Clouds,170,2012-11-10 04:15:00
9:35 PM,41.0,30.2,65,29.70,-9999.0,WNW,8.1,24.2,N/A,Rain,Light Rain,290,2012-11-10 04:35:00
9:55 PM,37.4,32.0,81,29.69,-9999.0,SE,6.9,-,N/A,,Mostly Cloudy,140,2012-11-10 04:55:00
10:14 PM,37.4,30.2,75,29.67,-9999.0,SSE,11.5,-,N/A,,Scattered Clouds,160,2012-11-10 05:14:00
10:35 PM,39.2,30.2,70,29.67,-9999.0,SW,3.5,-,N/A,,Mostly Cloudy,220,2012-11-10 05:35:00
10:55 PM,37.4,32.0,81,29.67,-9999.0,SW,5.8,-,N/A,,Overcast,220,2012-11-10 05:55:00
11:15 PM,37.4,32.0,81,29.68,-9999.0,West,16.1,24.2,N/A,Rain,Rain,260,2012-11-10 06:15:00
11:35 PM,37.4,32.0,81,29.67,-9999.0,WNW,4.6,-,N/A,Rain,Rain,290,2012-11-10 06:35:00
11:55 PM,37.4,32.0,81,29.65,-9999.0,West,3.5,-,N/A,,Overcast,260,2012-11-10 06:55:00